www.pogodaiklimat.ru

Погода и климат >> Архив погоды >> Бельгия >> Бовешен


ПОГОДА в Бовешене

  • Прогноз погоды в Бовешене
  • Монитор погоды в Бовешене

АРХИВ ПОГОДЫ в Бовешене

Время (UTC), дата Ветер
(напр.,м/с)
 
Видим.   Явления Облачность Т
(С)
Тd
(С)
f
(%)
Тe
(С)
Тes
(С)
Комфортность P
(гПа)
Po
(гПа)
Тmin
(С)
Tmax
(С)
R
(мм)
R24
(мм)
S
(см)
13 10.09 З 3
{5}
20 км 3/1 1350 м
[Cu hum Ci fib]
+19.2 +5.6 41 +20 +26 1018.7 1005.5
14 10.09 З 3
{6}
20 км 4/3 1500 м
[Cu hum Ci fib]
+19.8 +6.3 41 +21 +25 комфорт 1018.7 1005.6
15 10.09 СЗ 2
{6}
20 км 4/3 1500 м
[Cu hum Ci fib]
+20.0 +6.4 41 +21 +24 комфорт 1018.6 1005.3
16 10.09 СЗ 3
{5}
20 км 4/3 1500 м
[Sc Ci fib]
+19.2 +6.8 44 +20 +21 1019.0 1005.7
17 10.09 С 2
{4}
20 км 4/0
[Ac trans Ci fib]
+18.3 +7.3 49 +19 +19 1019.5 1006.2
18 10.09 нст 1
{6}
20 км 4/0 1500 м
[Ac trans Ci fib]
+16.7 +7.4 54 +18 +18 1019.8 1006.5 +20.8
19 10.09
{2}
20 км 4/0
[Ac trans Ci fib]
+15.1 +8.2 63 1020.7 1007.2
20 10.09
{2}
20 км 4/0
[Ac trans Ci fib]
+14.3 +8.7 69 1021.2 1007.7
21 10.09 нст 1
{2}
20 км 8/0 2000 м
[Ac trans Ci fib]
+14.8 +9.5 71 +15 +15 1021.6 1008.1
22 10.09
{1}
20 км 8/0
[Ac trans Ci fib]
+14.3 +9.8 74 1021.6 1008.1
23 10.09 Ю 2
{2}
20 км н/о +13.7 +9.4 75 +13 +13 1021.5 1007.8
00 11.09 нст 1
{2}
20 км н/о +13.1 +9.4 78 +13 +13 1021.7 1008.2
01 11.09 ЮЗ 2
{3}
20 км н/о +13.1 +9.4 78 +12 +12 1021.8 1008.2
02 11.09 ЮЗ 2
{3}
20 км н/о +12.5 +9.2 80 +12 +12 1021.7 1008.2
03 11.09 ЮЗ 2
{3}
17 км н/о +12.3 +9.3 82 +11 +11 1021.8 1008.2
04 11.09 ЮЗ 2
{3}
17 км н/о +12.6 +9.4 81 +12 +12 1021.7 1008.0
05 11.09 ЮЗ 2
{3}
20 км 9/4 1500 м
[Sc Ac trans]
+12.6 +9.2 80 +12 +12 1021.8 1008.2
06 11.09 ЮЗ 3
{4}
18 км 9/0 2000 м
[Ac trans Ci fib]
+12.6 +9.5 81 +11 +11 1022.2 1008.6 +12.1
07 11.09 ЮЗ 4
{5}
18 км 9/0
[Ac trans Ci fib]
+13.3 +10.2 81 +12 +12 1022.6 1009.0
08 11.09 ЮЗ 4
{6}
11 км слаб. дождь 9/0
[Ac trans Ci fib]
+14.3 +11.5 83 +13 +14 1022.7 1009.2
09 11.09 ЮЗ 4
{7}
8000 м слаб. дождь 10/10 600 м
[Cu Sc Ac trans Ci fib]
+14.1 +12.9 92 +13 +13 1023.2 1009.7
10 11.09 ЮЗ 4
{6}
12 км слаб. дождь 10/10 750 м
[Cu Sc Ac trans Ci fib]
+14.8 +13.1 90 +14 +14 1023.2 1009.7
11 11.09 ЮЗ 6
{8}
15 км слаб. дождь 10/10 1440 м
[Sc Ac trans]
+15.5 +13.6 88 +14 +14 1022.8 1009.5
12 11.09 ЮЗ 8
{11}
20 км в посл. час дождь 10/10 1350 м
[Sc Ac trans]
+16.7 +12.6 77 +15 +15 1022.7 1009.2 0.3
13 11.09 ЮЗ 6
{12}
20 км в посл. час дождь 10/10 1050 м
[Cu hum Ac trans]
+17.5 +12.3 72 +17 +17 1022.7 1009.2
14 11.09 ЮЗ 8
{12}
20 км в посл. час дождь 10/9 700 м
[Cu Sc]
+17.8 +11.6 67 +17 +17 1022.6 1009.2
15 11.09 ЮЗ 7
{12}
20 км 10/9 700 м
[Cu Sc]
+18.3 +11.1 63 +18 +18 1022.7 1009.2
16 11.09 ЮЗ 7
{11}
20 км 10/9 700 м
[Cu Sc]
+18.3 +10.5 60 +18 +18 1022.7 1009.5
17 11.09 ЮЗ 5
{9}
20 км н/о +18.3 +10.5 60 +18 +18 1022.8 1009.5
18 11.09 ЮЗ 5
{12}
20 км {дождь} н/о +18.2 +11.1 63 +18 +18 1022.8 1009.6 +18.6 0.3
19 11.09 ЮЗ 5
{9}
20 км {дождь, морось} н/о +17.7 +13.1 74 +17 +17 1023.7 1010.2
20 11.09 ЮЗ 5
{9}
6000 м н/о +16.3 +15.0 92 +15 +15 1024.4 1011.0
21 11.09 ЮЗ 5
{9}
16 км {дождь, морось} н/о +16.2 +15.5 96 +15 +15 1024.4 1011.0
22 11.09 ЮЗ 4
{8}
6000 м н/о +16.3 +15.7 96 +16 +16 1024.7 1011.2
23 11.09 ЮЗ 4
{6}
3400 м н/о +16.7 +15.8 94 +16 +16 1024.9 1011.5
00 12.09 ЮЗ 4
{9}
4100 м дымка {дождь} н/о +16.3 +16.1 99 +16 +16 1025.2 1011.8 0.0
01 12.09 ЮЗ 3
{6}
1900 м слаб. морось {дождь} н/о +16.2 +16.1 99 +16 +16 1025.7 1012.2
02 12.09 ЮЗ 3
{5}
5000 м дымка н/о +16.3 +16.1 99 +16 +16 1025.7 1012.3
03 12.09 ЮЗ 3
{6}
8000 м {дождь, морось} н/о +16.5 +16.1 97 +16 +16 1025.9 1012.5
04 12.09 ЮЗ 3
{6}
4000 м слаб. морось {дождь} 9/9 150 м
[Frnb]
+16.5 +16.2 98 +16 +16 1026.2 1012.7
05 12.09 ЮЗ 3
{4}
5000 м в посл. час дождь {морось} 9/9 150 м
[Frnb]
+16.5 +16.2 98 +16 +16 1026.5 1013.1
06 12.09 З 2
{6}
4000 м слаб. морось 9/9 150 м
[Frnb]
+16.1 +15.7 97 +16 +16 1027.2 1013.7 +16.1 0.4
07 12.09 ЮЗ 4
{6}
15 км в посл. час морось 9/9 210 м
[Sc]
+16.9 +16.1 95 +16 +16 1027.6 1013.9
08 12.09 ЮЗ 5
{7}
15 км 9/9 300 м
[Sc]
+17.6 +16.0 90 +17 +17 1028.2 1017.7
09 12.09 ЮЗ 5
{7}
20 км 9/6 300 м
[St As op Ci sp]
+18.6 +13.5 72 +19 +19 1028.8 1015.3
10 12.09 ЮЗ 8
{9}
20 км 8/8 660 м
[Cu Sc Ci fib]
+19.7 +13.0 65 +21 +21 комфорт 1029.2 1014.1
12 12.09 ЮЗ 9
{9}
20 км 4/4 960 м
[Cu Sc Ci fib]
+21.8 +12.7 56 +24 +25 комфорт 1029.7 1016.0
13 12.09 ЮЗ 5
{10}
20 км 4/4 960 м
[Cu Sc Ci fib]
+22.7 +13.0 54 +26 +28 жарко 1029.0 1015.8
14 12.09 З 6
{9}
20 км 1/1 1140 м
[Cu hum]
+22.9 +13.1 54 +26 +28 жарко 1029.0 1015.7
15 12.09 З 5
{10}
20 км 6/6 1200 м
[Sc Ac trans]
+22.2 +13.4 57 +25 +26 комфорт 1029.0 1015.7
16 12.09 З 5
{9}
20 км 6/6 1350 м
[Sc]
+22.1 +13.8 59 +25 +25 комфорт 1029.0 1015.7
17 12.09 З 4
{7}
20 км н/о +21.5 +14.5 64 +24 +24 комфорт 1029.4 1016.2
18 12.09 ЮЗ 4
{10}
20 км н/о +20.2 +14.8 71 +23 +23 комфорт 1029.7 1016.5
19 12.09 ЮЗ 3
{6}
20 км н/о +18.8 +15.1 79 +20 +20 1030.0 1016.7
20 12.09 ЮЗ 5
{6}
20 км н/о +18.7 +15.4 81 +19 +19 1030.0 1016.6
21 12.09 ЮЗ 5
{7}
20 км н/о +18.8 +15.9 83 +20 +20 1030.0 1016.6
22 12.09 З 7
{12}
20 км н/о +17.7 +14.2 80 +17 +17 1030.5 1017.1
23 12.09 ЮЗ 4
{9}
20 км н/о +17.1 +14.5 85 +17 +17 1030.2 1016.8
00 13.09 ЮЗ 5
{12}
20 км н/о +17.1 +14.2 83 +16 +16 1030.4 1016.8
01 13.09 З 5
{9}
20 км н/о +17.0 +14.4 85 +16 +16 1030.5 1017.0
02 13.09 З 4
{7}
20 км н/о +16.7 +14.6 87 +16 +16 1030.5 1017.1
03 13.09 З 3
{9}
20 км н/о +16.8 +14.5 86 +17 +17 1030.7 1017.2
04 13.09 ЮЗ 3
{5}
20 км н/о +16.7 +14.4 86 +16 +16 1030.7 1017.2
05 13.09 ЮЗ 3
{5}
20 км н/о +16.6 +14.3 86 +16 +16 1031.0 1017.6
06 13.09 ЮЗ 4
{9}
20 км 10/10 360 м
[Sc]
+16.6 +14.4 87 +16 +16 1031.5 1018.1 +16.5
07 13.09 З 3
{5}
15 км 10/10 330 м
[Frnb]
+16.7 +14.7 88 +16 +16 1032.2 1018.7
08 13.09 З 2
{4}
15 км 10/10 300 м
[Frnb]
+16.7 +14.7 88 +17 +17 1032.5 1019.1
09 13.09 ЮЗ 3
{5}
12 км 10/10 240 м
[Frnb]
+17.2 +15.2 88 +17 +17 1033.0 1019.6
10 13.09 З 3
{4}
12 км 10/10 270 м
[Frnb]
+18.1 +15.4 84 +18 +18 1033.2 1019.7
11 13.09 СЗ 2
{4}
15 км 9/9 360 м
[Sc]
+19.1 +15.5 80 +21 +22 комфорт 1033.0 1019.7
12 13.09 нст 1
{5}
15 км 9/8 420 м
[Cu Sc Ac trans Ci fib]
+21.1 +15.7 71 +24 +26 комфорт 1033.0 1019.7
13 13.09 С 4
{5}
15 км 9/8 660 м
[Cu Sc Ac trans Ci fib]
+20.0 +15.1 73 +22 +23 комфорт 1033.0 1019.7
14 13.09 С 3
{6}
18 км 8/6 700 м
[Cu Sc Ac trans Ci fib]
+20.5 +15.1 71 +24 +25 комфорт 1033.0 1019.6
15 13.09 С 2
{6}
18 км 6/5 800 м
[Cu Sc Ac trans Ci fib]
+21.2 +13.1 60 +24 +25 комфорт 1032.7 1019.5
16 13.09 С 3
{5}
18 км 6/5 1020 м
[Cu Sc Ac trans Ci fib]
+20.7 +13.2 62 +23 +24 комфорт 1032.9 1019.5
17 13.09 С 4
{6}
20 км 8/5 1110 м
[Cu Sc Ac trans Ci fib]
+20.0 +12.7 63 +22 +22 комфорт 1033.0 1019.7
18 13.09 С 3
{6}
20 км 8/5 1110 м
[Cu Sc Ac trans Ci fib]
+18.7 +13.0 69 +20 +20 1033.5 1020.0 +22.0
19 13.09 С 3
{5}
20 км н/о +17.5 +12.8 74 +18 +18 1034.2 1020.7
20 13.09 С 3
{5}
20 км н/о +16.3 +12.3 77 +16 +16 1034.4 1020.7
21 13.09 С 3
{5}
20 км н/о +14.9 +11.9 82 +14 +14 1034.7 1021.0
22 13.09 С 2
{5}
20 км н/о +13.8 +11.8 88 +13 +13 1034.7 1021.1
23 13.09
{2}
20 км н/о +13.3 +11.7 90 1034.5 1020.7
00 14.09 нст 1
{5}
20 км н/о +12.8 +11.4 91 +13 +13 1034.7 1020.8
01 14.09 С 2
{3}
20 км н/о +12.0 +11.1 94 +11 +11 1034.5 1020.7
02 14.09
{2}
20 км н/о +12.0 +10.5 91 1033.9 1020.1
03 14.09 СВ 2
{3}
18 км н/о +10.8 +9.6 92 +9 +9 1034.2 1020.3
04 14.09 СВ 2
{2}
19 км н/о +10.3 +9.4 94 +9 +9 1034.2 1020.2
05 14.09 В 2
{2}
20 км н/о +10.1 +9.0 93 +8 +8 1033.9 1020.0
06 14.09 нст 1
{3}
20 км 1/0
[Ci fib]
+10.3 +8.9 91 +10 +10 1033.9 1020.0 +9.9
07 14.09
{2}
20 км 1/0
[Ci fib]
+11.9 +9.8 87 1034.0 1020.2
08 14.09 В 2
{4}
20 км 1/0
[Ci fib]
+14.4 +10.8 79 +14 +17 1033.9 1020.2
09 14.09 СВ 3
{5}
20 км 1/0
[Ci fib]
+16.0 +11.0 72 +16 +20 1034.0 1020.3
10 14.09 В 3
{7}
20 км 3/0
[Ci fib]
+18.4 +11.5 64 +19 +25 1033.2 1019.7
11 14.09 СВ 2
{5}
20 км 3/0
[Ci fib]
+19.3 +10.4 56 +21 +30 комфорт 1032.7 1019.3
12 14.09 В 2
{7}
20 км 1/0
[Ci fib]
+19.9 +10.1 53 +22 +31 комфорт 1032.0 1018.6
13 14.09 СВ 2
{5}
20 км 1/0
[Ci fib]
+21.6 +9.9 47 +23 +31 комфорт 1031.2 1017.8
14 14.09 В 3
{5}
20 км 1/0
[Ci fib]
+21.6 +7.2 39 +22 +28 комфорт 1030.5 1017.2
15 14.09 СВ 3
{6}
20 км 3/0
[Ci fib]
+21.3 +6.9 39 +22 +25 комфорт 1029.7 1016.3
16 14.09 СВ 3
{5}
20 км 3/0
[Ci fib]
+21.4 +7.5 41 +22 +24 комфорт 1029.2 1016.0
17 14.09 СВ 2
{5}
20 км н/о +19.9 +8.1 46 +21 +21 комфорт 1029.2 1015.8
18 14.09 нст 1
{6}
20 км н/о +18.1 +8.0 52 +19 +19 1029.0 1015.6 +22.2
19 14.09
{2}
20 км н/о +17.7 +8.3 54 1029.0 1015.5
20 14.09
{1}
20 км н/о +16.6 +7.9 56 1028.7 1015.2
21 14.09 нст 1
{2}
20 км н/о +16.0 +7.3 56 +17 +17 1028.7 1015.2
22 14.09 ЮВ 2
{3}
20 км н/о +15.8 +6.8 55 +16 +16 1027.9 1014.3
23 14.09
{3}
20 км н/о +15.6 +6.4 54 1027.2 1013.7
00 15.09 нст 1
{3}
20 км н/о +12.3 +7.3 72 +12 +12 1027.0 1013.2
01 15.09
{2}
20 км н/о +12.3 +7.2 71 1026.7 1013.0
02 15.09
{1}
20 км н/о +12.5 +7.1 70 1026.2 1012.6
03 15.09 ЮЗ 2
{2}
20 км н/о +11.7 +7.3 74 +11 +11 1026.0 1012.3
04 15.09 ЮЗ 2
{3}
20 км н/о +12.4 +7.5 72 +12 +12 1025.5 1011.7
05 15.09 ЮЗ 2
{2}
18 км н/о +11.7 +7.5 75 +11 +11 1025.5 1011.8
06 15.09 ЮЗ 2
{3}
20 км 1/0
[Ci fib]
+12.0 +7.7 75 +11 +11 1025.7 1012.0 +11.0
07 15.09 ЮЗ 3
{4}
20 км 1/0
[Ci fib]
+13.7 +8.6 71 +13 +14 1025.2 1011.7
08 15.09 ЮЗ 3
{4}
20 км 1/0
[Ci fib]
+17.0 +10.1 64 +17 +19 1025.2 1011.7
09 15.09 З 3
{4}
20 км 3/0
[Ci fib]
+19.4 +9.9 54 +21 +25 комфорт 1025.2 1011.8
10 15.09 З 3
{6}
20 км 4/0
[Ci fib]
+20.8 +10.2 51 +23 +29 комфорт 1025.2 1012.1
11 15.09 З 5
{7}
20 км 4/0
[Ci fib]
+22.0 +11.2 50 +24 +28 комфорт 1025.3 1010.5
12 15.09 З 5
{7}
20 км 4/0
[Ci fib]
+22.1 +10.3 47 +24 +28 комфорт 1024.8 1011.1
13 15.09 ЮЗ 3
{7}
20 км 4/0
[Ci fib]
+23.1 +9.9 43 +25 +31 комфорт 1023.7 1010.7
14 15.09 З 4
{6}
20 км 4/0
[Ci fib]
+23.3 +8.7 39 +25 +29 комфорт 1023.1 1010.0
15 15.09 З 5
{8}
20 км 5/0
[Ci fib]
+23.6 +6.1 32 +24 +26 комфорт 1023.3 1009.7
16 15.09 З 3
{6}
20 км 4/0
[Ci fib]
+23.2 +7.3 36 +24 +25 комфорт 1022.2 1009.2
17 15.09 З 2
{4}
20 км н/о +22.2 +8.9 43 +24 +24 комфорт 1022.3 1009.2
18 15.09 нст 1
{7}
20 км н/о +20.2 +9.0 48 +23 +23 комфорт 1022.5 1009.2 +24.2
19 15.09 С 3
{5}
20 км н/о +16.8 +8.6 58 +17 +17 1023.2 1009.7
20 15.09
{5}
20 км н/о +17.2 +8.4 56 1023.2 1009.8
21 15.09 нст 1
{5}
20 км н/о +16.0 +10.5 70 +17 +17 1023.2 1009.8
22 15.09
{1}
20 км н/о +15.5 +11.7 78 1023.2 1009.7
23 15.09
{1}
20 км н/о +15.5 +11.8 79 1022.8 1009.3
00 16.09 нст 1
{5}
20 км н/о +15.1 +11.1 77 +16 +16 1022.2 1008.7
01 16.09
{4}
20 км н/о +15.1 +11.2 78 1021.8 1008.3
02 16.09
{2}
20 км н/о +12.6 +10.5 87 1022.2 1008.5
03 16.09 нст 1
{4}
20 км н/о +13.8 +10.7 82 +14 +14 1021.5 1008.0
04 16.09
{1}
20 км н/о +12.6 +10.7 88 1021.1 1007.5
05 16.09
{1}
20 км 6/0
[Ac trans]
+13.0 +10.2 83 1020.8 1007.3
06 16.09 нст 1
{4}
10 км 9/0
[Ac trans]
+13.6 +10.1 79 +14 +14 1020.7 1007.2 +12.1
07 16.09 ЮЗ 2
{3}
20 км 9/0
[Ac trans]
+14.6 +10.2 75 +14 +15 1021.0 1007.5
08 16.09 ЮЗ 4
{5}
20 км 9/0
[Ac trans]
+16.1 +10.5 69 +15 +16 1020.7 1007.3
09 16.09 ЮЗ 3
{5}
20 км 10/0
[Ac trans]
+17.7 +10.6 63 +18 +20 1020.7 1007.3
10 16.09 З 3
{5}
20 км 9/0
[Ac trans]
+18.6 +10.4 59 +19 +22 1020.7 1007.3
11 16.09 З 4
{6}
20 км 9/0
[Ac trans]
+19.1 +8.2 49 +20 +23 1020.6 1007.2
12 16.09 З 4
{7}
20 км 9/1 1050 м
[Sc Ac trans]
+20.0 +13.3 65 +22 +25 комфорт 1020.3 1007.2
13 16.09 З 3
{6}
20 км 9/1 960 м
[Sc Ac trans]
+20.0 +13.9 68 +22 +25 комфорт 1020.2 1007.1
14 16.09 З 3
{5}
8000 м 9/9 900 м
[]
+20.3 +14.6 70 +23 +24 комфорт 1020.1 1006.8
15 16.09 С 4
{8}
4000 м в посл. час дождь 9/9 600 м
[]
+17.0 +16.1 94 +17 +17 1020.6 1007.2
16 16.09 С 3
{5}
2000 м слаб. дождь 9/9 150 м
[Frnb]
+16.2 +15.8 97 +16 +16 1020.7 1007.3
17 16.09 С 2
{5}
4500 м в посл. час дождь 9/9 150 м
[Sc]
+15.8 +15.3 97 +16 +16 1020.7 1007.3
18 16.09 С 2
{8}
4000 м дымка {дождь} 9/9 210 м
[Sc]
+15.5 +14.8 96 +15 +15 1021.1 1007.7 +20.6 0.4
19 16.09 СВ 2
{4}
4000 м дымка {дождь} 9/9 240 м
[Sc]
+15.0 +14.1 94 +15 +15 1021.5 1008.0
20 16.09
{3}
5000 м дымка {дождь} 9/9 400 м
[Sc]
+14.8 +14.2 96 1021.7 1008.2
21 16.09 нст 1
{4}
5000 м дымка {дождь} 9/9 600 м
[Sc]
+14.6 +14.3 98 +15 +15 1021.7 1008.3
22 16.09
{1}
3700 м дымка н/о +14.6 +14.2 97 1022.0 1008.5
23 16.09 С 2
{3}
4600 м дымка н/о +14.6 +14.0 96 +14 +14 1022.2 1008.7
00 17.09 нст 1
{5}
6000 м н/о +13.8 +13.1 96 +14 +14 1022.1 1008.6
01 17.09
{2}
4800 м дымка н/о +13.6 +13.0 96 1021.8 1008.3
02 17.09
{2}
4600 м н/о +13.5 +12.8 96 1021.7 1008.2
03 17.09 нст 1
{2}
5000 м н/о +13.3 +12.7 96 +13 +13 1021.7 1008.2
04 17.09
{2}
10 км н/о +13.1 +12.1 94 1021.8 1008.3
05 17.09
{5}
20 км 8/5 630 м
[Sc Ac trans Ci fib]
+12.3 +11.1 92 1022.1 1008.5
06 17.09 нст 1
{5}
15 км 6/3 1110 м
[Sc Ac trans Ci fib]
+12.0 +10.9 93 +12 +12 1022.5 1008.7 +11.8
07 17.09
{2}
15 км 5/1 1200 м
[Sc Ac trans Ci fib]
+13.0 +10.4 84 1022.7 1009.2
08 17.09 С 2
{3}
20 км 5/1 540 м
[Cu hum Ac trans Ci fib]
+14.3 +9.2 71 +14 +16 1023.2 1009.7
09 17.09 С 2
{4}
20 км 5/1 540 м
[Cu hum Ac trans Ci fib]
+15.2 +8.6 65 +15 +19 1023.3 1009.8
10 17.09
{5}
20 км 5/3 840 м
[Cu hum Ac trans Ci fib]
+16.5 +8.5 59 1023.2 1009.7
11 17.09 СЗ 3
{6}
20 км 5/3 960 м
[Cu hum Ac trans Ci fib]
+17.1 +7.7 54 +17 +21 1023.2 1009.7
12 17.09 С 3
{7}
20 км 6/4 1140 м
[Sc diur, vesp Ci fib]
+17.5 +7.2 51 +18 +22 1023.1 1009.7
13 17.09 СЗ 3
{8}
20 км 8/5 1140 м
[Sc diur, vesp Ci fib]
+17.4 +7.9 54 +17 +20 1022.8 1009.5

 

Местоположение метеостанции Бовешен (Бельгия): широта 50.75 долгота 4.77 высота над уровнем моря 127 м.

В архиве по умолчанию представлена погода в Бовешене за последнюю неделю. Архивные данные за месяц целиком и за предыдущие месяцы, начиная с января 2011 года, Вы можете получить, выбрав интересующий диапазон дат из раскрывающегося списка и нажав кнопку "Ввод!".


*Определитесь, кто Вы:
робот инопланетянин человек

Внимание! Время в таблицах - всемирное. Для получения местного времени необходимо прибавить поправку, которая равна 1 ч.

Смотрите также архив погоды в соседних городах и на ближайших метеорологических станциях:

Погода в Эрнаже (Бельгия) (11 км)
Погода в Брюсселе (Бельгия) (24 км)
Погода в Уккеле (Бельгия) (30 км)
Погода в Шаффене (Бельгия) (35 км)
Погода в Шарлеруа (Бельгия) (38 км)
Погода в Бьерсете (Бельгия) (49 км)
Погода в Дипенбеке (Бельгия) (51 км)
Погода в Антверпене (Бельгия) (54 км)
Погода в Ретье (Бельгия) (55 км)
Погода во Флорене (Бельгия) (58 км)

Пояснения к столбцам:

Ветер - указаны скорость ветра в м/с - средняя за 10 мин, порывы в срок и между сроками (в фигурных скобках) и направление, откуда дует ветер: С - северный, СВ - северо-восточный, В - восточный, ЮВ - юго-восточный, Ю - южный, ЮЗ - юго-западный, З - западный, СЗ - северо-западный.
Видимость - горизонтальная дальность видимости в метрах или километрах. При видимости от 1 до 10 км при отсутствии осадков обычно наблюдается дымка, при ухудшении видимости до 1 км и менее - туман. В сухую погоду видимость может ухудшаться дымом, пылью или мглою.
Явления - указаны атмосферные явления, наблюдавшиеся в срок или в последний час перед сроком; фигурными скобками обозначены явления, наблюдавшиеся между сроками (за 1-3 часа до срока); квадратными скобками обозначены град или гололедные отложения с указанием их диаметра в мм.
Облачность - указаны через наклонную черту общая и нижняя облачность в баллах и высота нижней границы облаков в метрах; квадратными скобками обозначены формы облаков: Ci - перистые, Cs - перисто-слоистые, Cc - перисто-кучевые, Ac - высококучевые, As - высокослоистые, Sc - слоисто-кучевые, Ns - слоисто-дождевые, Cu - кучевые, Cb - кучево-дождевые. Подробнее классификацию облаков см. в Атласе облаков (PDF).
T - Температура воздуха - температура, измеренная на высоте 2 м над землей.
Td - Температура точки росы - температура, при понижении до которой содержащийся в воздухе водяной пар достигнет насыщения.
f - Относительная влажность воздуха - влажноcть воздуха, измеренная на высоте 2 м над землей.
Te - Эффективная температура - температура, которую ощущает одетый по сезону человек в тени. Характеристика душности погоды. При расчете учитывается влияние влажности воздуха и скорости ветра на теплоощущения человека.
Tes - Эффективная температура на солнце - температура, которую ощущает человек, с поправкой на солнечный нагрев. Характеристика знойности погоды. Зависит от высоты солнца над горизонтом, облачности и скорости ветра. Ночью, в пасмурную погоду, а также при ветре 12 м/с и более поправка равна нулю.
P - Атмосферное давление - приведенное к уровню моря атмосферное давление.
Po - Атмосферное давление - измеренное на уровне метеостанции атмосферное давление.
Tmin - Минимальная температура - минимум температуры воздуха на высоте 2 м над землей.
Tmax - Максимальная температура - максимум температуры воздуха на высоте 2 м над землей.
R - Количество осадков - Количество выпавших осадков за период времени, мм. При наведении курсора мыши на число - период времени, за который выпало указанное количество осадков.
R24 - Количество осадков - Количество выпавших осадков за 24 часа, мм.
S - Снежный покров - Высота снежного покрова, см. При наведении курсора мыши на число - состояние снежного покрова и степень покрытия местности в баллах.